DL4NBA-1 Weather Reports


Display with metric or nautical units.
time (UTC)temp
F
wind
direction
speed
MPH
gust
MPH
rain 1hr
in
rain 24hr
in
rain mn
in
humidity
%
barometer
mb
20260506085105 65 132 3.0 4.0 0.00 0.00 0.00
20260506084606 62 162 4.0 2.0 0.00 0.00 0.00
20260506083606 62 243 6.0 7.0 0.00 0.00 0.00
20260506082608 64 163 3.0 6.0 0.00 0.00 0.00
20260506082109 66 235 5.0 6.0 0.00 0.00 0.00
20260506081109 64 197 6.0 6.0 0.00 0.00 0.00
20260506080611 68 173 5.0 5.0 0.00 0.00 0.00
20260506080112 65 174 4.0 1.0 0.00 0.00 0.00
20260506072115 60 239 4.0 4.0 0.00 0.00 0.00
20260506071617 61 233 4.0 3.0 0.00 0.00 0.00
20260506071118 63 280 3.0 5.0 0.00 0.00 0.00
20260506070619 61 224 3.0 2.0 0.00 0.00 0.00
20260506062123 57 193 4.0 4.0 0.00 0.00 0.00
20260506061625 56 177 2.0 3.0 0.00 0.00 0.00
20260506060624 56 162 2.0 3.0 0.00 0.00 0.00
20260506060125 56 170 3.0 3.0 0.00 0.00 0.00
20260506050132 54 153 0.0 0.0 0.00 0.00 0.00
20260506045129 52 153 0.0 0.0 0.00 0.00 0.00
20260506044131 53 153 0.0 0.0 0.00 0.00 0.00
20260506043633 52 153 0.0 0.0 0.00 0.00 0.00
20260506043134 54 152 0.0 0.0 0.00 0.00 0.00
20260506042631 54 132 0.0 0.0 0.00 0.00 0.00
20260506042133 54 163 0.0 0.0 0.00 0.00 0.00
20260506040637 50 217 1.0 1.0 0.00 0.00 0.00
20260506035637 48 169 0.0 0.0 0.00 0.00 0.00
20260506035137 47 162 2.0 2.0 0.00 0.00 0.00
20260506034639 47 198 3.0 6.0 0.00 0.00 0.00
20260506034139 48 176 0.0 0.0 0.00 0.00 0.00
20260506033138 48 210 3.0 3.0 0.00 0.00 0.00
20260506032137 48 211 1.0 2.0 0.00 0.00 0.00
20260506030639 47 236 3.0 4.0 0.00 0.00 0.00
20260506030140 47 186 1.0 2.0 0.00 0.00 0.00
20260506025143 48 165 0.0 2.0 0.00 0.00 0.00
20260506024641 49 190 0.0 0.0 0.00 0.00 0.00
20260506023644 48 177 3.0 3.0 0.00 0.00 0.00
20260506022647 49 193 5.0 3.0 0.00 0.00 0.00
20260506022144 49 167 4.0 5.0 0.00 0.00 0.00
20260506021646 49 163 3.0 4.0 0.00 0.00 0.00
20260506020649 49 187 3.0 2.0 0.00 0.00 0.00
20260506020150 49 198 2.0 2.0 0.00 0.00 0.00
20260506015150 49 201 3.0 4.0 0.00 0.00 0.00
20260506014652 49 183 2.0 2.0 0.00 0.00 0.00
20260506014153 49 190 2.0 4.0 0.00 0.00 0.00
20260506013654 50 186 2.0 2.0 0.00 0.00 0.00
20260506013152 49 219 2.0 3.0 0.00 0.00 0.00
20260506012653 49 203 2.0 2.0 0.00 0.00 0.00
20260506012155 50 187 2.0 1.0 0.00 0.00 0.00
20260506011656 49 39 0.0 0.0 0.00 0.00 0.00
20260506010656 50 39 0.0 0.0 0.00 0.00 0.00
20260506010158 50 39 0.0 0.0 0.00 0.00 0.00
20260506005200 51 39 0.0 0.0 0.00 0.00 0.00
20260506004702 51 39 0.0 0.0 0.00 0.00 0.00
20260506003702 50 39 0.0 0.0 0.00 0.00 0.00
20260506002203 50 39 0.0 0.0 0.00 0.00 0.00
20260506001701 50 39 0.0 0.0 0.00 0.00 0.00
20260506001203 49 39 0.0 0.0 0.00 0.00 0.00
20260506000205 48 39 0.0 0.0 0.00 0.00 0.00
20260505235707 49 39 0.0 0.0 0.00 0.00 0.00
20260505235204 51 97 1.0 1.0 0.00 0.00 0.00
20260505234706 51 158 0.0 0.0 0.00 0.00 0.00
20260505234207 49 158 0.0 0.0 0.00 0.00 0.00
20260505233708 52 158 0.0 0.0 0.00 0.00 0.00
20260505233210 50 158 0.0 0.0 0.00 0.00 0.00
20260505232708 50 176 3.0 2.0 0.00 0.00 0.00
20260505232210 49 90 0.0 0.0 0.00 0.00 0.00
20260505230714 52 217 0.0 0.0 0.00 0.00 0.00
20260505225714 52 217 0.0 0.0 0.00 0.00 0.00
20260505224717 52 280 0.0 0.0 0.00 0.00 0.00
20260505224218 52 280 0.0 0.0 0.00 0.00 0.00
20260505223715 54 280 0.0 0.0 0.00 0.00 0.00
20260505223217 53 280 0.0 0.0 0.00 0.00 0.00
20260505222718 51 280 0.0 0.0 0.00 0.00 0.00
20260505221219 51 201 0.0 0.0 0.00 0.00 0.00
20260505215723 50 176 3.0 1.0 0.00 0.00 0.00
20260505214722 51 172 2.0 3.0 0.00 0.00 0.00
20260505214223 51 166 2.0 3.0 0.00 0.00 0.00
20260505213725 52 167 2.0 2.0 0.00 0.00 0.00
20260505213226 51 195 2.0 2.0 0.00 0.00 0.00
20260505211726 51 194 3.0 2.0 0.00 0.00 0.00
20260505211227 50 235 2.0 2.0 0.00 0.00 0.00
20260505210728 50 184 1.0 0.0 0.00 0.00 0.00
20260505210230 50 194 2.0 2.0 0.00 0.00 0.00
20260505205728 51 214 2.0 2.0 0.00 0.00 0.00
20260505204731 53 183 1.0 2.0 0.00 0.00 0.00
20260505204232 52 193 2.0 2.0 0.00 0.00 0.00
20260505203734 51 198 2.0 3.0 0.00 0.00 0.00
20260505202733 52 173 3.0 3.0 0.00 0.00 0.00
20260505201735 52 146 3.0 3.0 0.00 0.00 0.00
20260505201236 52 201 0.0 0.0 0.00 0.00 0.00
20260505200734 52 201 0.0 0.0 0.00 0.00 0.00
20260505200235 51 184 3.0 2.0 0.00 0.00 0.00
20260505195736 51 212 2.0 2.0 0.00 0.00 0.00
20260505194739 52 152 0.0 0.0 0.00 0.00 0.00
20260505194236 53 194 2.0 2.0 0.00 0.00 0.00
20260505192740 53 205 2.0 3.0 0.00 0.00 0.00
20260505192242 54 190 1.0 0.0 0.00 0.00 0.00
20260505191238 55 200 2.0 2.0 0.00 0.00 0.00
20260505190240 54 176 2.0 2.0 0.00 0.00 0.00
20260505185741 53 139 0.0 0.0 0.00 0.00 0.00
20260505185236 53 158 1.0 0.0 0.00 0.00 0.00
20260505184737 54 278 4.0 1.0 0.00 0.00 0.00
20260505183239 54 256 6.0 6.0 0.00 0.00 0.00
20260505182737 54 260 5.0 7.0 0.00 0.00 0.00
20260505182238 55 294 5.0 4.0 0.00 0.00 0.00
20260505181740 55 229 5.0 4.0 0.00 0.00 0.00
20260505180742 55 252 6.0 9.0 0.00 0.00 0.00
20260505180239 55 276 6.0 4.0 0.00 0.00 0.00
20260505175740 55 250 7.0 9.0 0.00 0.00 0.00
20260505175242 55 269 6.0 6.0 0.00 0.00 0.00
20260505174244 55 274 6.0 4.0 0.00 0.00 0.00
20260505172744 56 252 5.0 4.0 0.00 0.00 0.00
20260505172245 56 253 4.0 7.0 0.00 0.00 0.00
20260505171747 56 232 5.0 7.0 0.00 0.00 0.00
20260505170248 57 263 6.0 6.0 0.00 0.00 0.00
20260505165749 57 312 6.0 6.0 0.00 0.00 0.00
20260505164749 57 249 5.0 3.0 0.00 0.00 0.00
20260505164250 57 250 4.0 5.0 0.00 0.00 0.00
20260505163752 57 270 5.0 5.0 0.00 0.00 0.00
20260505163253 57 277 6.0 5.0 0.00 0.00 0.00
20260505162754 57 256 5.0 5.0 0.00 0.00 0.00
20260505160756 58 158 1.0 2.0 0.00 0.00 0.00
20260505160258 59 224 3.0 8.0 0.00 0.00 0.00
20260505153259 57 210 9.0 8.0 0.00 0.00 0.00
20260505152801 58 236 11.0 11.0 0.00 0.00 0.00
20260505152304 58 207 10.0 12.0 0.00 0.00 0.00
20260505150801 61 203 9.0 9.0 0.00 0.00 0.00
20260505130312 75 25 1.0 0.0 0.00 0.00 0.00
20260505124317 73 309 3.0 4.0 0.00 0.00 0.00
20260505123316 75 323 4.0 4.0 0.00 0.00 0.00
20260505122817 75 316 6.0 5.0 0.00 0.00 0.00
20260505122318 74 328 6.0 5.0 0.00 0.00 0.00
20260505121819 79 7 3.0 3.0 0.00 0.00 0.00
20260505121316 75 73 3.0 4.0 0.00 0.00 0.00
20260505120818 74 297 7.0 5.0 0.00 0.00 0.00
20260505120319 76 6 6.0 9.0 0.00 0.00 0.00
20260505114818 74 356 6.0 1.0 0.00 0.00 0.00
20260505113818 74 340 4.0 7.0 0.00 0.00 0.00
20260505113319 74 274 9.0 7.0 0.00 0.00 0.00
20260505112820 80 338 5.0 4.0 0.00 0.00 0.00
20260505112317 80 321 5.0 6.0 0.00 0.00 0.00
20260505111818 79 73 3.0 8.0 0.00 0.00 0.00
20260505111319 77 323 5.0 2.0 0.00 0.00 0.00
20260505110820 76 353 4.0 5.0 0.00 0.00 0.00
20260505110321 76 322 8.0 6.0 0.00 0.00 0.00
20260505101821 73 295 4.0 5.0 0.00 0.00 0.00
20260505101322 75 226 4.0 0.0 0.00 0.00 0.00
20260505100819 77 49 5.0 0.0 0.00 0.00 0.00
20260505095821 75 56 6.0 4.0 0.00 0.00 0.00
20260505095322 77 342 3.0 0.0 0.00 0.00 0.00
20260505094823 78 100 5.0 5.0 0.00 0.00 0.00
20260505093738 73 32 7.0 8.0 0.00 0.00 0.00
20260505092739 72 14 7.0 5.0 0.00 0.00 0.00
20260505092240 74 11 7.0 3.0 0.00 0.00 0.00
20260505091240 73 326 4.0 1.0 0.00 0.00 0.00